owner,sensor,date,latitude,longitude,vertical_datum,wind_speed,wind_to_direction,wind_speed_of_gust,qcFlag 
COMPS,ioos:station:USF.COMPS:FHP:1,2014-04-01T00:00:00Z,28.1530,-82.8010,10.0,1.55,0.1,2.05,'1111122,1111122,1111122' 
COMPS,ioos:station:USF.COMPS:FHP:1,2014-04-01T00:06:00Z,28.1530,-82.8010,10.0,1.23,0.92,1.56,'1111122,1111122,1111122' 
COMPS,ioos:station:USF.COMPS:FHP:1,2014-04-01T00:12:00Z,28.1530,-82.8010,10.0,1.29,19.33,1.47,'1111122,1111122,1111122' 
COMPS,ioos:station:USF.COMPS:FHP:1,2014-04-01T00:18:00Z,28.1530,-82.8010,10.0,1.49,12.12,1.86,'1111122,1111122,1111122' 
COMPS,ioos:station:USF.COMPS:FHP:1,2014-04-01T00:24:00Z,28.1530,-82.8010,10.0,1.36,10.53,1.66,'1111122,1111122,1111122' 
COMPS,ioos:station:USF.COMPS:FHP:1,2014-04-01T00:30:00Z,28.1530,-82.8010,10.0,1.53,4.85,1.66,'1111122,1111122,1111122' 
COMPS,ioos:station:USF.COMPS:FHP:1,2014-04-01T00:36:00Z,28.1530,-82.8010,10.0,1.67,8.07,1.86,'1111122,1111122,1111122' 
COMPS,ioos:station:USF.COMPS:FHP:1,2014-04-01T00:42:00Z,28.1530,-82.8010,10.0,2.01,1.37,2.54,'1111122,1111122,1111122' 
COMPS,ioos:station:USF.COMPS:FHP:1,2014-04-01T00:48:00Z,28.1530,-82.8010,10.0,2.15,358.1,2.54,'1111122,1111122,1111122' 
COMPS,ioos:station:USF.COMPS:FHP:1,2014-04-01T00:54:00Z,28.1530,-82.8010,10.0,2.1,352.44,2.35,'1111122,1111122,1111122' 
COMPS,ioos:station:USF.COMPS:FHP:1,2014-04-01T01:00:00Z,28.1530,-82.8010,10.0,2.27,346.06,2.74,'1111122,1111122,1111122' 
COMPS,ioos:station:USF.COMPS:FHP:1,2014-04-01T01:06:00Z,28.1530,-82.8010,10.0,2.73,345.82,3.03,'1111122,1111122,1111122' 
COMPS,ioos:station:USF.COMPS:FHP:1,2014-04-01T01:12:00Z,28.1530,-82.8010,10.0,2.92,354.04,3.33,'1111122,1111122,1111122' 
COMPS,ioos:station:USF.COMPS:FHP:1,2014-04-01T01:18:00Z,28.1530,-82.8010,10.0,3.29,1.25,3.52,'1111122,1111122,1111122' 
COMPS,ioos:station:USF.COMPS:FHP:1,2014-04-01T01:24:00Z,28.1530,-82.8010,10.0,3.38,6.16,3.72,'1111122,1111122,1111122' 
COMPS,ioos:station:USF.COMPS:FHP:1,2014-04-01T01:30:00Z,28.1530,-82.8010,10.0,2.86,353.51,3.62,'1111122,1111122,1111122' 
COMPS,ioos:station:USF.COMPS:FHP:1,2014-04-01T01:36:00Z,28.1530,-82.8010,10.0,3.11,352.53,3.62,'1111122,1111122,1111122' 
COMPS,ioos:station:USF.COMPS:FHP:1,2014-04-01T01:42:00Z,28.1530,-82.8010,10.0,2.9,353.34,3.62,'1111122,1111122,1111122' 
COMPS,ioos:station:USF.COMPS:FHP:1,2014-04-01T01:48:00Z,28.1530,-82.8010,10.0,1.92,1.68,2.35,'1111122,1111122,1111122' 
COMPS,ioos:station:USF.COMPS:FHP:1,2014-04-01T01:54:00Z,28.1530,-82.8010,10.0,1.87,9.85,2.25,'1111122,1111122,1111122' 
COMPS,ioos:station:USF.COMPS:FHP:1,2014-04-01T02:00:00Z,28.1530,-82.8010,10.0,1.17,31.61,2.25,'1111122,1111122,1111122' 
COMPS,ioos:station:USF.COMPS:FHP:1,2014-04-01T02:06:00Z,28.1530,-82.8010,10.0,0.53,37.26,0.97,'1111122,1111122,1111122' 
COMPS,ioos:station:USF.COMPS:FHP:1,2014-04-01T02:12:00Z,28.1530,-82.8010,10.0,0.22,41.89,0.58,'1111122,1111122,1111122' 
COMPS,ioos:station:USF.COMPS:FHP:1,2014-04-01T02:18:00Z,28.1530,-82.8010,10.0,0.59,43.08,0.88,'1111122,1111122,1111122' 
COMPS,ioos:station:USF.COMPS:FHP:1,2014-04-01T02:24:00Z,28.1530,-82.8010,10.0,0.53,42.9,0.78,'1111122,1111122,1111122' 
COMPS,ioos:station:USF.COMPS:FHP:1,2014-04-01T02:30:00Z,28.1530,-82.8010,10.0,1.26,31.24,1.86,'1111122,1111122,1111122' 
COMPS,ioos:station:USF.COMPS:FHP:1,2014-04-01T02:36:00Z,28.1530,-82.8010,10.0,1.2,27.55,1.56,'1111122,1111122,1111122' 
COMPS,ioos:station:USF.COMPS:FHP:1,2014-04-01T02:42:00Z,28.1530,-82.8010,10.0,0.8,35.07,1.07,'1111122,1111122,1111122' 
COMPS,ioos:station:USF.COMPS:FHP:1,2014-04-01T02:48:00Z,28.1530,-82.8010,10.0,0.75,46.1,1.07,'1111122,1111122,1111122' 
COMPS,ioos:station:USF.COMPS:FHP:1,2014-04-01T02:54:00Z,28.1530,-82.8010,10.0,0.9,31.25,1.27,'1111122,1111122,1111122' 
COMPS,ioos:station:USF.COMPS:FHP:1,2014-04-01T03:00:00Z,28.1530,-82.8010,10.0,0.71,29.58,1.17,'1111122,1111122,1111122' 
COMPS,ioos:station:USF.COMPS:FHP:1,2014-04-01T03:06:00Z,28.1530,-82.8010,10.0,0.52,28.65,1.07,'1111122,1111122,1111122' 
COMPS,ioos:station:USF.COMPS:FHP:1,2014-04-01T03:12:00Z,28.1530,-82.8010,10.0,0.28,11.58,1.17,'1111122,1111122,1111122' 
COMPS,ioos:station:USF.COMPS:FHP:1,2014-04-01T03:18:00Z,28.1530,-82.8010,10.0,0.68,25.65,1.76,'1111122,1111122,1111122' 
COMPS,ioos:station:USF.COMPS:FHP:1,2014-04-01T03:24:00Z,28.1530,-82.8010,10.0,1.92,10.41,2.54,'1111122,1111122,1111122' 
COMPS,ioos:station:USF.COMPS:FHP:1,2014-04-01T03:30:00Z,28.1530,-82.8010,10.0,1.24,28.4,2.15,'1111122,1111122,1111122' 
COMPS,ioos:station:USF.COMPS:FHP:1,2014-04-01T03:36:00Z,28.1530,-82.8010,10.0,1.02,45.09,1.37,'1111122,1111122,1111122' 
COMPS,ioos:station:USF.COMPS:FHP:1,2014-04-01T03:42:00Z,28.1530,-82.8010,10.0,0.94,36.85,1.27,'1111122,1111122,1111122' 
COMPS,ioos:station:USF.COMPS:FHP:1,2014-04-01T03:48:00Z,28.1530,-82.8010,10.0,0.8,42.5,1.07,'1111122,1111122,1111122' 
COMPS,ioos:station:USF.COMPS:FHP:1,2014-04-01T03:54:00Z,28.1530,-82.8010,10.0,0.95,33.76,1.27,'1111122,1111122,1111122' 
COMPS,ioos:station:USF.COMPS:FHP:1,2014-04-01T04:00:00Z,28.1530,-82.8010,10.0,1.23,27.25,1.66,'1111122,1111122,1111122' 
COMPS,ioos:station:USF.COMPS:FHP:1,2014-04-01T04:06:00Z,28.1530,-82.8010,10.0,1.42,24.18,1.86,'1111122,1111122,1111122' 
COMPS,ioos:station:USF.COMPS:FHP:1,2014-04-01T04:12:00Z,28.1530,-82.8010,10.0,2.1,16.7,2.64,'1111122,1111122,1111122' 
COMPS,ioos:station:USF.COMPS:FHP:1,2014-04-01T04:18:00Z,28.1530,-82.8010,10.0,2.24,18.49,2.84,'1111122,1111122,1111122' 
COMPS,ioos:station:USF.COMPS:FHP:1,2014-04-01T04:24:00Z,28.1530,-82.8010,10.0,2.12,21.42,2.74,'1111122,1111122,1111122' 
COMPS,ioos:station:USF.COMPS:FHP:1,2014-04-01T04:30:00Z,28.1530,-82.8010,10.0,0.73,52.05,1.27,'1111122,1111122,1111122' 
COMPS,ioos:station:USF.COMPS:FHP:1,2014-04-01T04:36:00Z,28.1530,-82.8010,10.0,0.62,52.34,0.97,'1111122,1111122,1111122' 
COMPS,ioos:station:USF.COMPS:FHP:1,2014-04-01T04:42:00Z,28.1530,-82.8010,10.0,0.92,34.98,1.27,'1111122,1111122,1111122' 
COMPS,ioos:station:USF.COMPS:FHP:1,2014-04-01T04:48:00Z,28.1530,-82.8010,10.0,0.87,52.45,1.17,'1111122,1111122,1111122' 
COMPS,ioos:station:USF.COMPS:FHP:1,2014-04-01T04:54:00Z,28.1530,-82.8010,10.0,0.74,49.75,1.07,'1111122,1111122,1111122' 
COMPS,ioos:station:USF.COMPS:FHP:1,2014-04-01T05:00:00Z,28.1530,-82.8010,10.0,0.51,40.95,0.78,'1111122,1111122,1111122' 
COMPS,ioos:station:USF.COMPS:FHP:1,2014-04-01T05:06:00Z,28.1530,-82.8010,10.0,0.19,31.9,0.39,'1111122,1111122,1111122' 
COMPS,ioos:station:USF.COMPS:FHP:1,2014-04-01T05:12:00Z,28.1530,-82.8010,10.0,0.36,35.46,1.27,'1111122,1111122,1111122' 
COMPS,ioos:station:USF.COMPS:FHP:1,2014-04-01T05:18:00Z,28.1530,-82.8010,10.0,0.5,43.03,0.78,'1111122,1111122,1111122' 
COMPS,ioos:station:USF.COMPS:FHP:1,2014-04-01T05:24:00Z,28.1530,-82.8010,10.0,0.69,76.0,0.88,'1111122,1111122,1111122' 
COMPS,ioos:station:USF.COMPS:FHP:1,2014-04-01T05:30:00Z,28.1530,-82.8010,10.0,0.59,85.0,1.07,'1111122,1111122,1111122' 
COMPS,ioos:station:USF.COMPS:FHP:1,2014-04-01T05:36:00Z,28.1530,-82.8010,10.0,0.93,78.96,1.27,'1111122,1111122,1111122' 
COMPS,ioos:station:USF.COMPS:FHP:1,2014-04-01T05:42:00Z,28.1530,-82.8010,10.0,1.46,61.47,1.76,'1111122,1111122,1111122' 
COMPS,ioos:station:USF.COMPS:FHP:1,2014-04-01T05:48:00Z,28.1530,-82.8010,10.0,1.56,64.8,1.76,'1111122,1111122,1111122' 
COMPS,ioos:station:USF.COMPS:FHP:1,2014-04-01T05:54:00Z,28.1530,-82.8010,10.0,1.57,69.76,1.86,'1111122,1111122,1111122' 
COMPS,ioos:station:USF.COMPS:FHP:1,2014-04-01T06:00:00Z,28.1530,-82.8010,10.0,1.81,73.01,2.05,'1111122,1111122,1111122' 
COMPS,ioos:station:USF.COMPS:FHP:1,2014-04-01T06:06:00Z,28.1530,-82.8010,10.0,2.35,72.66,2.54,'1111122,1111122,1111122' 
COMPS,ioos:station:USF.COMPS:FHP:1,2014-04-01T06:12:00Z,28.1530,-82.8010,10.0,2.01,74.22,2.45,'1111122,1111122,1111122' 
COMPS,ioos:station:USF.COMPS:FHP:1,2014-04-01T06:18:00Z,28.1530,-82.8010,10.0,2.02,69.53,2.45,'1111122,1111122,1111122' 
COMPS,ioos:station:USF.COMPS:FHP:1,2014-04-01T06:24:00Z,28.1530,-82.8010,10.0,1.84,72.7,2.45,'1111122,1111122,1111122' 
COMPS,ioos:station:USF.COMPS:FHP:1,2014-04-01T06:30:00Z,28.1530,-82.8010,10.0,2.09,74.24,2.45,'1111122,1111122,1111122' 
COMPS,ioos:station:USF.COMPS:FHP:1,2014-04-01T06:36:00Z,28.1530,-82.8010,10.0,2.14,67.56,2.54,'1111122,1111122,1111122' 
COMPS,ioos:station:USF.COMPS:FHP:1,2014-04-01T06:42:00Z,28.1530,-82.8010,10.0,2.13,78.01,2.54,'1111122,1111122,1111122' 
COMPS,ioos:station:USF.COMPS:FHP:1,2014-04-01T06:48:00Z,28.1530,-82.8010,10.0,2.22,78.21,2.74,'1111122,1111122,1111122' 
COMPS,ioos:station:USF.COMPS:FHP:1,2014-04-01T06:54:00Z,28.1530,-82.8010,10.0,1.88,76.13,2.15,'1111122,1111122,1111122' 
COMPS,ioos:station:USF.COMPS:FHP:1,2014-04-01T07:00:00Z,28.1530,-82.8010,10.0,1.85,75.87,2.45,'1111122,1111122,1111122' 
COMPS,ioos:station:USF.COMPS:FHP:1,2014-04-01T07:06:00Z,28.1530,-82.8010,10.0,2.17,78.63,2.54,'1111122,1111122,1111122' 
COMPS,ioos:station:USF.COMPS:FHP:1,2014-04-01T07:12:00Z,28.1530,-82.8010,10.0,2.06,86.49,2.74,'1111122,1111122,1111122' 
COMPS,ioos:station:USF.COMPS:FHP:1,2014-04-01T07:18:00Z,28.1530,-82.8010,10.0,2.08,112.32,2.74,'1111122,1111122,1111122' 
COMPS,ioos:station:USF.COMPS:FHP:1,2014-04-01T07:24:00Z,28.1530,-82.8010,10.0,1.45,117.21,2.05,'1111122,1111122,1111122' 
COMPS,ioos:station:USF.COMPS:FHP:1,2014-04-01T07:30:00Z,28.1530,-82.8010,10.0,1.75,105.73,2.15,'1111122,1111122,1111122' 
COMPS,ioos:station:USF.COMPS:FHP:1,2014-04-01T07:36:00Z,28.1530,-82.8010,10.0,2.15,105.77,2.94,'1111122,1111122,1111122' 
COMPS,ioos:station:USF.COMPS:FHP:1,2014-04-01T07:42:00Z,28.1530,-82.8010,10.0,2.87,94.73,3.62,'1111122,1111122,1111122' 
COMPS,ioos:station:USF.COMPS:FHP:1,2014-04-01T07:48:00Z,28.1530,-82.8010,10.0,2.8,88.05,3.23,'1111122,1111122,1111122' 
COMPS,ioos:station:USF.COMPS:FHP:1,2014-04-01T07:54:00Z,28.1530,-82.8010,10.0,2.7,89.87,3.13,'1111122,1111122,1111122' 
COMPS,ioos:station:USF.COMPS:FHP:1,2014-04-01T08:00:00Z,28.1530,-82.8010,10.0,2.79,87.85,3.13,'1111122,1111122,1111122' 
COMPS,ioos:station:USF.COMPS:FHP:1,2014-04-01T08:06:00Z,28.1530,-82.8010,10.0,3.23,101.3,4.41,'1111122,1111122,1111122' 
COMPS,ioos:station:USF.COMPS:FHP:1,2014-04-01T08:12:00Z,28.1530,-82.8010,10.0,3.56,110.64,4.7,'1111122,1111122,1111122' 
COMPS,ioos:station:USF.COMPS:FHP:1,2014-04-01T08:18:00Z,28.1530,-82.8010,10.0,3.36,107.6,4.41,'1111122,1111122,1111122' 
COMPS,ioos:station:USF.COMPS:FHP:1,2014-04-01T08:24:00Z,28.1530,-82.8010,10.0,3.07,103.99,3.92,'1111122,1111122,1111122' 
COMPS,ioos:station:USF.COMPS:FHP:1,2014-04-01T08:30:00Z,28.1530,-82.8010,10.0,2.56,106.11,3.43,'1111122,1111122,1111122' 
COMPS,ioos:station:USF.COMPS:FHP:1,2014-04-01T08:36:00Z,28.1530,-82.8010,10.0,2.47,108.65,3.33,'1111122,1111122,1111122' 
COMPS,ioos:station:USF.COMPS:FHP:1,2014-04-01T08:42:00Z,28.1530,-82.8010,10.0,1.84,108.36,3.23,'1111122,1111122,1111122' 
COMPS,ioos:station:USF.COMPS:FHP:1,2014-04-01T08:48:00Z,28.1530,-82.8010,10.0,1.88,110.22,3.03,'1111122,1111122,1111122' 
COMPS,ioos:station:USF.COMPS:FHP:1,2014-04-01T08:54:00Z,28.1530,-82.8010,10.0,2.17,103.71,3.13,'1111122,1111122,1111122' 
COMPS,ioos:station:USF.COMPS:FHP:1,2014-04-01T09:00:00Z,28.1530,-82.8010,10.0,2.28,90.85,2.94,'1111122,1111122,1111122' 
COMPS,ioos:station:USF.COMPS:FHP:1,2014-04-01T09:06:00Z,28.1530,-82.8010,10.0,2.49,96.41,3.52,'1111122,1111122,1111122' 
COMPS,ioos:station:USF.COMPS:FHP:1,2014-04-01T09:12:00Z,28.1530,-82.8010,10.0,3.01,88.68,3.82,'1111122,1111122,1111122' 
COMPS,ioos:station:USF.COMPS:FHP:1,2014-04-01T09:18:00Z,28.1530,-82.8010,10.0,3.63,89.07,4.6,'1111122,1111122,1111122' 
COMPS,ioos:station:USF.COMPS:FHP:1,2014-04-01T09:24:00Z,28.1530,-82.8010,10.0,3.69,92.17,4.41,'1111122,1111122,1111122' 
COMPS,ioos:station:USF.COMPS:FHP:1,2014-04-01T09:30:00Z,28.1530,-82.8010,10.0,3.65,104.75,4.31,'1111122,1111122,1111122' 
COMPS,ioos:station:USF.COMPS:FHP:1,2014-04-01T09:36:00Z,28.1530,-82.8010,10.0,4.37,102.83,5.48,'1111122,1111122,1111122' 
COMPS,ioos:station:USF.COMPS:FHP:1,2014-04-01T09:42:00Z,28.1530,-82.8010,10.0,4.46,97.64,5.29,'1111122,1111122,1111122' 
COMPS,ioos:station:USF.COMPS:FHP:1,2014-04-01T09:48:00Z,28.1530,-82.8010,10.0,4.35,100.3,4.99,'1111122,1111122,1111122' 
COMPS,ioos:station:USF.COMPS:FHP:1,2014-04-01T09:54:00Z,28.1530,-82.8010,10.0,4.3,104.47,5.09,'1111122,1111122,1111122' 
COMPS,ioos:station:USF.COMPS:FHP:1,2014-04-01T10:00:00Z,28.1530,-82.8010,10.0,4.27,97.43,5.09,'1111122,1111122,1111122' 
COMPS,ioos:station:USF.COMPS:FHP:1,2014-04-01T10:06:00Z,28.1530,-82.8010,10.0,3.94,98.42,4.5,'1111122,1111122,1111122' 
COMPS,ioos:station:USF.COMPS:FHP:1,2014-04-01T10:12:00Z,28.1530,-82.8010,10.0,3.71,99.34,4.31,'1111122,1111122,1111122' 
COMPS,ioos:station:USF.COMPS:FHP:1,2014-04-01T10:18:00Z,28.1530,-82.8010,10.0,3.59,94.38,4.31,'1111122,1111122,1111122' 
COMPS,ioos:station:USF.COMPS:FHP:1,2014-04-01T10:24:00Z,28.1530,-82.8010,10.0,3.68,94.05,4.11,'1111122,1111122,1111122' 
COMPS,ioos:station:USF.COMPS:FHP:1,2014-04-01T10:30:00Z,28.1530,-82.8010,10.0,3.41,94.32,4.01,'1111122,1111122,1111122' 
COMPS,ioos:station:USF.COMPS:FHP:1,2014-04-01T10:36:00Z,28.1530,-82.8010,10.0,3.08,97.09,3.82,'1111122,1111122,1111122' 
COMPS,ioos:station:USF.COMPS:FHP:1,2014-04-01T10:42:00Z,28.1530,-82.8010,10.0,2.74,96.14,3.33,'1111122,1111122,1111122' 
COMPS,ioos:station:USF.COMPS:FHP:1,2014-04-01T10:48:00Z,28.1530,-82.8010,10.0,2.4,94.17,2.94,'1111122,1111122,1111122' 
COMPS,ioos:station:USF.COMPS:FHP:1,2014-04-01T10:54:00Z,28.1530,-82.8010,10.0,2.06,95.95,2.54,'1111122,1111122,1111122' 
COMPS,ioos:station:USF.COMPS:FHP:1,2014-04-01T11:00:00Z,28.1530,-82.8010,10.0,2.28,89.3,2.64,'1111122,1111122,1111122' 
COMPS,ioos:station:USF.COMPS:FHP:1,2014-04-01T11:06:00Z,28.1530,-82.8010,10.0,2.27,88.3,2.84,'1111122,1111122,1111122' 
COMPS,ioos:station:USF.COMPS:FHP:1,2014-04-01T11:12:00Z,28.1530,-82.8010,10.0,2.25,85.45,2.54,'1111122,1111122,1111122' 
COMPS,ioos:station:USF.COMPS:FHP:1,2014-04-01T11:18:00Z,28.1530,-82.8010,10.0,2.65,88.77,3.03,'1111122,1111122,1111122' 
COMPS,ioos:station:USF.COMPS:FHP:1,2014-04-01T11:24:00Z,28.1530,-82.8010,10.0,2.51,91.12,3.03,'1111122,1111122,1111122' 
COMPS,ioos:station:USF.COMPS:FHP:1,2014-04-01T11:30:00Z,28.1530,-82.8010,10.0,2.75,88.09,3.23,'1111122,1111122,1111122' 
COMPS,ioos:station:USF.COMPS:FHP:1,2014-04-01T11:36:00Z,28.1530,-82.8010,10.0,2.81,83.48,3.23,'1111122,1111122,1111122' 
COMPS,ioos:station:USF.COMPS:FHP:1,2014-04-01T11:42:00Z,28.1530,-82.8010,10.0,2.55,75.49,2.94,'1111122,1111122,1111122' 
COMPS,ioos:station:USF.COMPS:FHP:1,2014-04-01T11:48:00Z,28.1530,-82.8010,10.0,2.33,72.03,2.74,'1111122,1111122,1111122' 
COMPS,ioos:station:USF.COMPS:FHP:1,2014-04-01T11:54:00Z,28.1530,-82.8010,10.0,2.48,75.9,3.03,'1111122,1111122,1111122' 
COMPS,ioos:station:USF.COMPS:FHP:1,2014-04-01T12:00:00Z,28.1530,-82.8010,10.0,2.83,82.54,3.33,'1111122,1111122,1111122' 
COMPS,ioos:station:USF.COMPS:FHP:1,2014-04-01T12:06:00Z,28.1530,-82.8010,10.0,3.15,85.73,3.72,'1111122,1111122,1111122' 
COMPS,ioos:station:USF.COMPS:FHP:1,2014-04-01T12:12:00Z,28.1530,-82.8010,10.0,2.42,87.44,3.52,'1111122,1111122,1111122' 
COMPS,ioos:station:USF.COMPS:FHP:1,2014-04-01T12:18:00Z,28.1530,-82.8010,10.0,1.84,91.54,2.25,'1111122,1111122,1111122' 
COMPS,ioos:station:USF.COMPS:FHP:1,2014-04-01T12:24:00Z,28.1530,-82.8010,10.0,1.37,83.7,1.86,'1111122,1111122,1111122' 
COMPS,ioos:station:USF.COMPS:FHP:1,2014-04-01T12:30:00Z,28.1530,-82.8010,10.0,1.13,73.53,1.47,'1111122,1111122,1111122' 
COMPS,ioos:station:USF.COMPS:FHP:1,2014-04-01T12:36:00Z,28.1530,-82.8010,10.0,1.17,72.52,1.66,'1111122,1111122,1111122' 
COMPS,ioos:station:USF.COMPS:FHP:1,2014-04-01T12:42:00Z,28.1530,-82.8010,10.0,0.66,84.55,1.66,'1111122,1111122,1111122' 
COMPS,ioos:station:USF.COMPS:FHP:1,2014-04-01T12:48:00Z,28.1530,-82.8010,10.0,2.15,110.26,3.23,'1111122,1111122,1111122' 
COMPS,ioos:station:USF.COMPS:FHP:1,2014-04-01T12:54:00Z,28.1530,-82.8010,10.0,2.69,109.52,3.43,'1111122,1111122,1111122' 
COMPS,ioos:station:USF.COMPS:FHP:1,2014-04-01T13:00:00Z,28.1530,-82.8010,10.0,3.05,113.47,3.72,'1111122,1111122,1111122' 
COMPS,ioos:station:USF.COMPS:FHP:1,2014-04-01T13:06:00Z,28.1530,-82.8010,10.0,2.83,113.48,3.43,'1111122,1111122,1111122' 
COMPS,ioos:station:USF.COMPS:FHP:1,2014-04-01T13:12:00Z,28.1530,-82.8010,10.0,3.2,117.87,4.01,'1111122,1111122,1111122' 
COMPS,ioos:station:USF.COMPS:FHP:1,2014-04-01T13:18:00Z,28.1530,-82.8010,10.0,3.12,116.77,4.21,'1111122,1111122,1111122' 
COMPS,ioos:station:USF.COMPS:FHP:1,2014-04-01T13:24:00Z,28.1530,-82.8010,10.0,3.22,118.62,4.01,'1111122,1111122,1111122' 
COMPS,ioos:station:USF.COMPS:FHP:1,2014-04-01T13:30:00Z,28.1530,-82.8010,10.0,3.06,120.21,4.21,'1111122,1111122,1111122' 
COMPS,ioos:station:USF.COMPS:FHP:1,2014-04-01T13:36:00Z,28.1530,-82.8010,10.0,3.43,122.37,4.11,'1111122,1111122,1111122' 
COMPS,ioos:station:USF.COMPS:FHP:1,2014-04-01T13:42:00Z,28.1530,-82.8010,10.0,3.23,126.26,3.72,'1111122,1111122,1111122' 
COMPS,ioos:station:USF.COMPS:FHP:1,2014-04-01T13:48:00Z,28.1530,-82.8010,10.0,3.23,124.2,3.82,'1111122,1111122,1111122' 
COMPS,ioos:station:USF.COMPS:FHP:1,2014-04-01T13:54:00Z,28.1530,-82.8010,10.0,3.33,128.2,4.01,'1111122,1111122,1111122' 
COMPS,ioos:station:USF.COMPS:FHP:1,2014-04-01T14:00:00Z,28.1530,-82.8010,10.0,2.82,127.49,3.72,'1111122,1111122,1111122' 
COMPS,ioos:station:USF.COMPS:FHP:1,2014-04-01T14:06:00Z,28.1530,-82.8010,10.0,3.38,132.18,4.11,'1111122,1111122,1111122' 
COMPS,ioos:station:USF.COMPS:FHP:1,2014-04-01T14:12:00Z,28.1530,-82.8010,10.0,2.99,125.04,3.72,'1111122,1111122,1111122' 
COMPS,ioos:station:USF.COMPS:FHP:1,2014-04-01T14:18:00Z,28.1530,-82.8010,10.0,3.11,127.02,3.72,'1111122,1111122,1111122' 
COMPS,ioos:station:USF.COMPS:FHP:1,2014-04-01T14:24:00Z,28.1530,-82.8010,10.0,3.19,134.71,3.92,'1111122,1111122,1111122' 
COMPS,ioos:station:USF.COMPS:FHP:1,2014-04-01T14:30:00Z,28.1530,-82.8010,10.0,3.08,134.09,3.72,'1111122,1111122,1111122' 
COMPS,ioos:station:USF.COMPS:FHP:1,2014-04-01T14:36:00Z,28.1530,-82.8010,10.0,2.75,130.79,3.72,'1111122,1111122,1111122' 
COMPS,ioos:station:USF.COMPS:FHP:1,2014-04-01T14:42:00Z,28.1530,-82.8010,10.0,3.51,137.99,4.31,'1111122,1111122,1111122' 
COMPS,ioos:station:USF.COMPS:FHP:1,2014-04-01T14:48:00Z,28.1530,-82.8010,10.0,3.57,139.0,4.41,'1111122,1111122,1111122' 
COMPS,ioos:station:USF.COMPS:FHP:1,2014-04-01T14:54:00Z,28.1530,-82.8010,10.0,3.37,139.6,4.21,'1111122,1111122,1111122' 
COMPS,ioos:station:USF.COMPS:FHP:1,2014-04-01T15:00:00Z,28.1530,-82.8010,10.0,3.89,140.8,4.6,'1111122,1111122,1111122' 
COMPS,ioos:station:USF.COMPS:FHP:1,2014-04-01T15:06:00Z,28.1530,-82.8010,10.0,3.63,141.4,4.8,'1111122,1111122,1111122' 
COMPS,ioos:station:USF.COMPS:FHP:1,2014-04-01T15:12:00Z,28.1530,-82.8010,10.0,3.77,138.86,5.19,'1111122,1111122,1111122' 
COMPS,ioos:station:USF.COMPS:FHP:1,2014-04-01T15:18:00Z,28.1530,-82.8010,10.0,3.17,144.97,4.01,'1111122,1111122,1111122' 
COMPS,ioos:station:USF.COMPS:FHP:1,2014-04-01T15:24:00Z,28.1530,-82.8010,10.0,2.93,137.92,4.21,'1111122,1111122,1111122' 
COMPS,ioos:station:USF.COMPS:FHP:1,2014-04-01T15:30:00Z,28.1530,-82.8010,10.0,2.45,138.43,4.01,'1111122,1111122,1111122' 
COMPS,ioos:station:USF.COMPS:FHP:1,2014-04-01T15:36:00Z,28.1530,-82.8010,10.0,2.41,164.34,3.23,'1111122,1111122,1111122' 
COMPS,ioos:station:USF.COMPS:FHP:1,2014-04-01T15:42:00Z,28.1530,-82.8010,10.0,1.31,219.35,1.96,'1111122,1111122,1111122' 
COMPS,ioos:station:USF.COMPS:FHP:1,2014-04-01T15:48:00Z,28.1530,-82.8010,10.0,1.59,262.55,2.25,'1111122,1111122,1111122' 
COMPS,ioos:station:USF.COMPS:FHP:1,2014-04-01T15:54:00Z,28.1530,-82.8010,10.0,2.12,280.13,2.54,'1111122,1111122,1111122' 
COMPS,ioos:station:USF.COMPS:FHP:1,2014-04-01T16:00:00Z,28.1530,-82.8010,10.0,2.2,282.3,2.64,'1111122,1111122,1111122' 
COMPS,ioos:station:USF.COMPS:FHP:1,2014-04-01T16:06:00Z,28.1530,-82.8010,10.0,2.35,272.02,2.94,'1111122,1111122,1111122' 
COMPS,ioos:station:USF.COMPS:FHP:1,2014-04-01T16:12:00Z,28.1530,-82.8010,10.0,2.49,286.85,2.94,'1111122,1111122,1111122' 
COMPS,ioos:station:USF.COMPS:FHP:1,2014-04-01T16:18:00Z,28.1530,-82.8010,10.0,2.89,296.05,3.13,'1111122,1111122,1111122' 
COMPS,ioos:station:USF.COMPS:FHP:1,2014-04-01T16:24:00Z,28.1530,-82.8010,10.0,2.55,295.6,2.94,'1111122,1111122,1111122' 
COMPS,ioos:station:USF.COMPS:FHP:1,2014-04-01T16:30:00Z,28.1530,-82.8010,10.0,2.5,289.83,2.94,'1111122,1111122,1111122' 
COMPS,ioos:station:USF.COMPS:FHP:1,2014-04-01T16:36:00Z,28.1530,-82.8010,10.0,2.76,297.53,3.52,'1111122,1111122,1111122' 
COMPS,ioos:station:USF.COMPS:FHP:1,2014-04-01T16:42:00Z,28.1530,-82.8010,10.0,3.36,329.53,3.92,'1111122,1111122,1111122' 
COMPS,ioos:station:USF.COMPS:FHP:1,2014-04-01T16:48:00Z,28.1530,-82.8010,10.0,3.61,339.81,4.01,'1111122,1111122,1111122' 
COMPS,ioos:station:USF.COMPS:FHP:1,2014-04-01T16:54:00Z,28.1530,-82.8010,10.0,3.87,338.63,4.31,'1111122,1111122,1111122' 
COMPS,ioos:station:USF.COMPS:FHP:1,2014-04-01T17:00:00Z,28.1530,-82.8010,10.0,3.87,347.68,4.41,'1111122,1111122,1111122' 
COMPS,ioos:station:USF.COMPS:FHP:1,2014-04-01T17:06:00Z,28.1530,-82.8010,10.0,3.8,346.55,4.11,'1111122,1111122,1111122' 
COMPS,ioos:station:USF.COMPS:FHP:1,2014-04-01T17:12:00Z,28.1530,-82.8010,10.0,3.82,346.46,4.11,'1111122,1111122,1111122' 
COMPS,ioos:station:USF.COMPS:FHP:1,2014-04-01T17:18:00Z,28.1530,-82.8010,10.0,3.57,350.54,4.01,'1111122,1111122,1111122' 
COMPS,ioos:station:USF.COMPS:FHP:1,2014-04-01T17:24:00Z,28.1530,-82.8010,10.0,3.47,348.42,3.92,'1111122,1111122,1111122' 
COMPS,ioos:station:USF.COMPS:FHP:1,2014-04-01T17:30:00Z,28.1530,-82.8010,10.0,3.82,352.94,4.21,'1111122,1111122,1111122' 
COMPS,ioos:station:USF.COMPS:FHP:1,2014-04-01T17:36:00Z,28.1530,-82.8010,10.0,4.04,355.31,4.6,'1111122,1111122,1111122' 
COMPS,ioos:station:USF.COMPS:FHP:1,2014-04-01T17:42:00Z,28.1530,-82.8010,10.0,4.13,349.7,4.5,'1111122,1111122,1111122' 
COMPS,ioos:station:USF.COMPS:FHP:1,2014-04-01T17:48:00Z,28.1530,-82.8010,10.0,3.69,351.78,4.6,'1111122,1111122,1111122' 
COMPS,ioos:station:USF.COMPS:FHP:1,2014-04-01T17:54:00Z,28.1530,-82.8010,10.0,3.76,349.75,4.41,'1111122,1111122,1111122' 
COMPS,ioos:station:USF.COMPS:FHP:1,2014-04-01T18:00:00Z,28.1530,-82.8010,10.0,3.96,354.86,4.41,'1111122,1111122,1111122' 
COMPS,ioos:station:USF.COMPS:FHP:1,2014-04-01T18:06:00Z,28.1530,-82.8010,10.0,4.3,352.85,4.8,'1111122,1111122,1111122' 
COMPS,ioos:station:USF.COMPS:FHP:1,2014-04-01T18:12:00Z,28.1530,-82.8010,10.0,4.73,352.12,5.39,'1111122,1111122,1111122' 
COMPS,ioos:station:USF.COMPS:FHP:1,2014-04-01T18:18:00Z,28.1530,-82.8010,10.0,4.92,359.09,5.48,'1111122,1111122,1111122' 
COMPS,ioos:station:USF.COMPS:FHP:1,2014-04-01T18:24:00Z,28.1530,-82.8010,10.0,5.28,359.05,5.78,'1111122,1111122,1111122' 
COMPS,ioos:station:USF.COMPS:FHP:1,2014-04-01T18:30:00Z,28.1530,-82.8010,10.0,5.07,0.71,5.68,'1111122,1111122,1111122' 
COMPS,ioos:station:USF.COMPS:FHP:1,2014-04-01T18:36:00Z,28.1530,-82.8010,10.0,4.72,0.83,5.29,'1111122,1111122,1111122' 
COMPS,ioos:station:USF.COMPS:FHP:1,2014-04-01T18:42:00Z,28.1530,-82.8010,10.0,4.81,3.35,5.29,'1111122,1111122,1111122' 
COMPS,ioos:station:USF.COMPS:FHP:1,2014-04-01T18:48:00Z,28.1530,-82.8010,10.0,4.81,2.48,5.29,'1111122,1111122,1111122' 
COMPS,ioos:station:USF.COMPS:FHP:1,2014-04-01T18:54:00Z,28.1530,-82.8010,10.0,4.44,2.5,5.19,'1111122,1111122,1111122' 
COMPS,ioos:station:USF.COMPS:FHP:1,2014-04-01T19:00:00Z,28.1530,-82.8010,10.0,3.95,1.47,4.41,'1111122,1111122,1111122' 
COMPS,ioos:station:USF.COMPS:FHP:1,2014-04-01T19:06:00Z,28.1530,-82.8010,10.0,3.56,359.99,3.92,'1111122,1111122,1111122' 
COMPS,ioos:station:USF.COMPS:FHP:1,2014-04-01T19:12:00Z,28.1530,-82.8010,10.0,3.67,359.71,4.11,'1111122,1111122,1111122' 
COMPS,ioos:station:USF.COMPS:FHP:1,2014-04-01T19:18:00Z,28.1530,-82.8010,10.0,3.77,1.08,4.41,'1111122,1111122,1111122' 
COMPS,ioos:station:USF.COMPS:FHP:1,2014-04-01T19:24:00Z,28.1530,-82.8010,10.0,3.37,359.33,3.92,'1111122,1111122,1111122' 
COMPS,ioos:station:USF.COMPS:FHP:1,2014-04-01T19:30:00Z,28.1530,-82.8010,10.0,3.15,358.09,3.52,'1111122,1111122,1111122' 
COMPS,ioos:station:USF.COMPS:FHP:1,2014-04-01T19:36:00Z,28.1530,-82.8010,10.0,2.86,354.85,3.52,'1111122,1111122,1111122' 